Regional Weather Roundup
Issued by NWS

Home | Current Version | Previous Version | Graphics & Text | Print | Product List | Glossary On
Versions: 1 2 3 4 5 6 7 8 9 10 11 12 13 14 15 16 17 18 19 20 21 22 23 24 25 26 27 28 29 30 31 32 33 34 35 36 37 38 39 40 41 42 43 44 45 46 47 48 49 50
000
ASUS43 KMPX 182210
RWRMN
WEATHER ROUNDUP FOR MINNESOTA
NATIONAL WEATHER SERVICE TWIN CITIES/CHANHASSEN MN
400 PM CST THU JAN 18 2018


NOTE: "FAIR" INDICATES FEW OR NO CLOUDS BELOW 12,000 FEET WITH NO
SIGNIFICANT WEATHER AND/OR OBSTRUCTIONS TO VISIBILITY. N/A MEANS
CURRENT SKY AND/OR WEATHER CONDITIONS ARE NOT AVAILABLE.

MNZ060>063-068>070-182300-
   Twin Cities Metro

CITY           SKY/WX    TMP DP  RH WIND       PRES   REMARKS
TWIN CITIES    CLOUDY    40  27  59 S7        29.78F
ST PAUL        FAIR      40  26  57 SW7       29.80S
CRYSTAL        FAIR      40  24  53 S5        29.76F
BLAINE         MOCLDY    43  27  52 SW5       29.77S
LAKEVILLE      FAIR      36  27  69 S5        29.79F
EDEN PRAIRIE   FAIR      38  27  64 S8        29.77F
SOUTH ST PAUL  FAIR      40  26  55 CALM      29.79S
LAKE ELMO      FAIR      37  27  65 S6        29.79S
$$
MNZ001>005-007-008-013>017-022>024-027-028-182300-
   Northwest Minnesota

CITY           SKY/WX    TMP DP  RH WIND       PRES   REMARKS
BEMIDJI        FAIR      29  25  84 W5        29.72S WCI  24
HALLOCK        FAIR      25  21  86 SE10      29.67F WCI  15
ROSEAU         CLOUDY    27  21  80 SW5       29.70S WCI  21
WARROAD        CLOUDY    27  21  80 SW7       29.70S WCI  19
THIEF RVR FALL FAIR      23  19  85 S8        29.72S WCI  14
CROOKSTON      FAIR      25  19  80 S9        29.73F WCI  15
FOSSTON        FAIR      25  18  74 S6        29.73S WCI  18
DETROIT LAKES  FAIR      30  23  74 S3        29.74F
MOORHEAD       FAIR      30  23  74 S5        29.75F WCI  25
PARK RAPIDS    FAIR      29  22  75 SW5       29.72S WCI  24
MAHNOMEN       FAIR      26  21  80 S7        29.73S WCI  19
$$
MNZ006-009>011-018-025>026-182300-
   North Central Minnesota

CITY           SKY/WX    TMP DP  RH WIND       PRES   REMARKS
BAUDETTE       CLOUDY    28  22  78 W6        29.69R WCI  22
FLAG ISLAND    CLOUDY    27  19  74 W6        29.67R WCI  20
INTL FALLS     FAIR      29  18  63 W10       29.68F WCI  20
WASKISH        CLOUDY    28  27  93 SW7       29.71S WCI  21
BIG FORK       CLOUDY    30  25  80 W3        29.71S
LONGVILLE      FAIR      34  27  75 SW3       29.72S
GRAND RAPIDS   FAIR      34  25  69 W6        29.73S WCI  29
CRANE LAKE     CLOUDY    28  25  86 SW3       29.72R
ORR            CLOUDY    28  19  69 W6        29.68S WCI  22
COOK           CLOUDY    28  21  74 W7        29.70F WCI  21
WALKER         FAIR      33  25  72 SW5       29.72S WCI  28
$$
MNZ012-019>021-037-182300-
   Northeast Minnesota

CITY           SKY/WX    TMP DP  RH WIND       PRES   REMARKS
DULUTH         FAIR      35  26  69 W8        29.70S WCI  29
ELY            CLOUDY    30  25  80 W7        29.69S WCI  23
HIBBING        CLOUDY    30  23  75 W9        29.70S WCI  22
EVELETH        CLOUDY    30  22  72 W8        29.71S WCI  22
DULUTH HARBOR  FAIR      36  28  75 W6        29.74S
TWO HARBORS    CLOUDY    37  27  65 W8        29.70S
SILVER BAY     CLOUDY    34  25  69 W3        29.69R
GRAND MARAIS     N/A     36  29  75 CALM      29.70R
G MARAIS ARPRT CLOUDY    28  25  86 W7        29.65R WCI  21
$$
MNZ029>031-032-039>041-046>048-054>057-064-182300-
   West Central Minnesota

CITY           SKY/WX    TMP DP  RH WIND       PRES   REMARKS
FERGUS FALLS   FAIR      34  27  75 CALM      29.74S
MORRIS         CLOUDY    39  28  65 CALM      29.74F
ALEXANDRIA     FAIR      36  25  64 W5        29.75S
ELBOW LAKE     FAIR      35  27  72 CALM      29.76S
WADENA         FAIR      32  21  64 SW3       29.74R
GLENWOOD       FAIR      36  27  69 SW3       29.75F
APPLETON       CLOUDY    43  30  61 CALM      29.76S
BENSON         CLOUDY    39  28  65 CALM      29.77F
ORTONVILLE     CLOUDY    41  28  60 CALM      29.76S
MADISON        CLOUDY    45  34  65 SE3       29.76S
WILLMAR        FAIR      39  30  70 CALM      29.79S
$$
MNZ033>034-036-042>043-049>051-058-059-182300-
   Central Minnesota

CITY           SKY/WX    TMP DP  RH WIND       PRES   REMARKS
ST CLOUD       FAIR      36  26  67 SW3       29.76S
SAUK CENTRE      N/A     36  27  69 W3        29.76R
PAYNESVILLE    FAIR      38  30  71 SW6       29.77R
AITKIN         FAIR      34  25  69 W5        29.73R WCI  30
PINE RIVER     FAIR      34  23  64 CALM      29.77R
BRAINERD       FAIR      36  23  59 NW3       29.75R
STAPLES        FAIR      30  21  69 CALM      29.74S
LONG PRAIRIE   FAIR      34  27  75 S3        29.75S
LITTLE FALLS     N/A    N/A N/A N/A CALM        N/A
LITCHFIELD     FAIR      41  30  65 CALM      29.77S
BUFFALO        FAIR      38  26  62 SW3       29.78F
MAPLE LAKE     FAIR      39  29  67 MISG      29.77F
HUTCHINSON     FAIR      42  32  69 SW3       29.79S
$$
MNZ037-044-045-052-053-182300-
   East Central Minnesota

CITY           SKY/WX    TMP DP  RH WIND       PRES   REMARKS
PRINCETON      FAIR      41  27  56 SW3       29.76F
MORA           FAIR      36  23  60 SW3       29.77S
CAMBRIDGE      FAIR      39  27  60 S5        29.76F
RUSH CITY      FAIR      37  23  56 CALM      29.75F
MOOSE LAKE     FAIR      37  28  70 W5        29.71S
HINCKLEY       FAIR      36  27  69 S5        29.75S
CLOQUET        FAIR      37  25  60 W8        29.71S
MCGREGOR       FAIR      36  28  75 SW7       29.73S
$$
MNZ071>073-080-081-089-090-097-098-182300-
   Southwest Minnesota

CITY           SKY/WX    TMP DP  RH WIND       PRES   REMARKS
MONTEVIDEO     CLOUDY    43  28  56 W8        29.76S
GRANITE FALLS  CLOUDY    42  33  68 S7        29.78S
CANBY          CLOUDY    45  29  53 NW5       29.78R
MARSHALL       CLOUDY    38  29  70 SW7       29.79S
REDWOOD FALLS  CLOUDY    41  31  67 SW9       29.78S
OLIVIA         CLOUDY    41  30  65 SW6       29.77S
PIPESTONE      CLOUDY    34  27  75 SW8       29.79F WCI  27
WINDOM         CLOUDY    37  21  52 W9        29.81R
WORTHINGTON    CLOUDY    36  28  73 SW13      29.82R
JACKSON        CLOUDY    37  30  75 SW13      29.81F
SLAYTON        CLOUDY    35  29  78 SW7       29.81S WCI  29
$$
MNZ065>067-074>077-082>085-091>093-182300-
   South Central Minnesota

CITY           SKY/WX    TMP DP  RH WIND       PRES   REMARKS
MANKATO        FAIR      40  30  67 SW12      29.81R
NEW ULM        CLOUDY    41  28  60 SW8       29.80S
ST JAMES       CLOUDY    39  30  70 SW8       29.83R
FAIRMONT       CLOUDY    39  29  67 SW7       29.83R
FARIBAULT      FAIR      37  28  70 S8        29.82R
OWATONNA       FAIR      36  28  75 SW9       29.83R
WASECA         FAIR      36  30  80 S10       29.83R
ALBERT LEA     FAIR      36  21  55 SW10      29.83R
$$
MNZ078>079-086>088-094>096-182300-
   Southeast Minnesota

CITY           SKY/WX    TMP DP  RH WIND       PRES   REMARKS
ROCHESTER      FAIR      32  27  81 S13       29.82S WCI  22
RED WING       FAIR      37  21  52 SW6       29.81S
STANTON        FAIR      36  28  72 SW7       29.80R
DODGE CENTER   FAIR      34  28  80 SW8       29.82R WCI  27
WINONA         FAIR      36  25  64 CALM      29.83R
AUSTIN         FAIR      34  25  69 SW9       29.83S WCI  26
PRESTON        FAIR      33  24  69 SW13G18   29.84S WCI  24
$$
ABBREVIATIONS USED IN REMARKS
   TC - TEMPERATURES IN CELSIUS
  WCI - WIND CHILL INDEX
   HX - HEAT INDEX
  VSB - VISIBILITY
$$




USA.gov is the U.S. government's official web portal to all federal, state and local government web resources and services.